Location: Go�ngahuizen
(53.0821°N, 5.8849°E)
Time: 05:32:23
(UTC+00:00)

Cosmos 1812 Rocket - Pass Details

Date: 09 April 2020
Orbit: 607 x 631 km, 82.5° (Epoch: 29 May)

Event Time Altitude Azimuth Distance (km) Brightness Sun altitude
Exits shadow 21:02:22 13° 212° (SSW) 1,772 5.7 -20.6°
Maximum altitude 21:06:06 49° 286° (WNW) 789 4.4 -21.0°
Drops below altitude 10° 21:10:20 10° 2° (N) 1,972 6.8 -21.4°
Sets 21:12:38 0° 8° (N) 2,881 7.6 -21.6°
